User: anonymous   Login
Location: Clinton NY
(43.0598°N, 75.3602°W)
Time: 00:00:59
(UTC-05:00)
Language:

Iridium 11 - Orbit

View from above orbital plane
View from above orbital plane
View from above satellite
View from above satellite

Ground track
Ground track

The orbit data is extracted from the following two-line orbital elements,

1 25578U 98074B   17023.43519616  .00000008  00000-0 -41489-5 0  9993
2 25578  86.3981 316.1103 0002232  82.2499  51.3528 14.34216312956654
Epoch (UTC): 23 January 2017 10:26:40
Eccentricity: 0.0002232
inclination: 86.3981°
perigee height: 776 km
apogee height: 779 km
right ascension of ascending node: 316.1103°
argument of perigee: 82.2499°
revolutions per day: 14.34216312
mean anomaly at epoch: 51.3528°
orbit number at epoch: 95665

The dashed part of the orbit path shows where the satellite is in the earth's shadow,  

DLR